• In Czech Republic
  • List of Countries
  • For 7 days
  • Water Temperature
  • Satellite Maps
  • Weather Map
  • Weather Widgets
  • user-avatar
    Login

    Hourly Weather Lubango

    Today, 19 October, Thursday

    Time Temperature Precipitation Wind Pressure Humidity
    00:00 +15°C° 0 mm 1 mps 609 mmHg 80%
    01:00 +15°C° 0 mm 1 mps 609 mmHg 84%
    02:00 +14°C° 0 mm 1 mps 609 mmHg 85%
    03:00 +14°C° 0 mm 1 mps 609 mmHg 86%
    04:00 +14°C° 0 mm 1 mps 608 mmHg 86%
    05:00 +15°C° 0 mm 1 mps 609 mmHg 80%
    06:00 +16°C° 0 mm 1 mps 610 mmHg 73%
    07:00 +18°C° 0 mm 1 mps 611 mmHg 64%
    08:00 +21°C° 0 mm 1 mps 612 mmHg 52%
    09:00 +24°C° 0 mm 1 mps 613 mmHg 41%
    10:00 +27°C° 0 mm 1 mps 614 mmHg 30%
    11:00 +29°C° 0 mm 2 mps 614 mmHg 27%
    12:00 +30°C° 0 mm 2 mps 614 mmHg 24%
    13:00 +30°C° 0 mm 3 mps 613 mmHg 25%
    14:00 +29°C° 0 mm 3 mps 613 mmHg 27%
    15:00 +29°C° 0 mm 3 mps 612 mmHg 28%
    16:00 +28°C° 0 mm 3 mps 612 mmHg 29%
    17:00 +26°C° 0.1 mm 3 mps 611 mmHg 37%
    18:00 +24°C° 0.1 mm 3 mps 611 mmHg 44%
    19:00 +20°C° 0.1 mm 3 mps 610 mmHg 52%
    20:00 +20°C° 0 mm 2 mps 610 mmHg 56%
    21:00 +19°C° 0 mm 2 mps 610 mmHg 60%
    22:00 +19°C° 0 mm 1 mps 610 mmHg 64%
    23:00 +18°C° 0 mm 1 mps 610 mmHg 66%

    Tomorrow, 20 October, Friday

    Time Temperature Precipitation Wind Pressure Humidity
    00:00 +18°C° 0 mm 1 mps 609 mmHg 68%
    01:00 +16°C° 0 mm 1 mps 609 mmHg 69%
    02:00 +15°C° 0 mm 0 mps 609 mmHg 70%
    03:00 +15°C° 0 mm 0 mps 608 mmHg 71%
    04:00 +14°C° 0 mm 0 mps 608 mmHg 71%
    05:00 +15°C° 0 mm 0 mps 609 mmHg 64%
    06:00 +19°C° 0 mm 1 mps 610 mmHg 58%
    07:00 +20°C° 0 mm 1 mps 611 mmHg 51%
    08:00 +23°C° 0 mm 1 mps 612 mmHg 42%
    09:00 +26°C° 0 mm 1 mps 613 mmHg 32%
    10:00 +29°C° 0 mm 2 mps 614 mmHg 23%
    11:00 +30°C° 0 mm 2 mps 614 mmHg 22%
    12:00 +31°C° 0 mm 3 mps 614 mmHg 20%
    13:00 +33°C° 0 mm 3 mps 614 mmHg 18%
    14:00 +31°C° 0 mm 3 mps 613 mmHg 21%
    15:00 +29°C° 0 mm 4 mps 612 mmHg 24%
    16:00 +28°C° 0 mm 4 mps 611 mmHg 26%
    17:00 +26°C° 0 mm 4 mps 611 mmHg 33%
    18:00 +22°C° 0 mm 3 mps 611 mmHg 40%
    19:00 +20°C° 0 mm 3 mps 610 mmHg 47%
    20:00 +19°C° 0 mm 2 mps 610 mmHg 51%
    21:00 +19°C° 0 mm 1 mps 610 mmHg 55%
    22:00 +18°C° 0 mm 1 mps 610 mmHg 59%
    23:00 +16°C° 0 mm 1 mps 610 mmHg 59%

    Day after tomorrow, 21 October, Saturday

    Time Temperature Precipitation Wind Pressure Humidity
    00:00 +16°C° 0 mm 1 mps 610 mmHg 59%
    01:00 +16°C° 0 mm 1 mps 609 mmHg 60%
    02:00 +15°C° 0 mm 1 mps 609 mmHg 59%
    03:00 +15°C° 0 mm 1 mps 609 mmHg 59%
    04:00 +14°C° 0 mm 0 mps 608 mmHg 59%
    05:00 +16°C° 0 mm 1 mps 609 mmHg 52%
    06:00 +19°C° 0 mm 1 mps 610 mmHg 45%
    07:00 +20°C° 0 mm 1 mps 611 mmHg 39%
    08:00 +24°C° 0 mm 2 mps 613 mmHg 31%
    09:00 +27°C° 0 mm 3 mps 614 mmHg 24%
    10:00 +30°C° 0 mm 3 mps 615 mmHg 16%
    11:00 +33°C° 0 mm 3 mps 614 mmHg 15%
    12:00 +34°C° 0 mm 3 mps 614 mmHg 14%
    13:00 +35°C° 0 mm 3 mps 614 mmHg 12%
    14:00 +33°C° 0 mm 4 mps 613 mmHg 15%
    15:00 +32°C° 0 mm 4 mps 612 mmHg 18%
    16:00 +30°C° 0 mm 4 mps 611 mmHg 21%
    17:00 +27°C° 0 mm 4 mps 611 mmHg 30%
    18:00 +24°C° 0 mm 3 mps 610 mmHg 39%
    19:00 +20°C° 0 mm 2 mps 610 mmHg 47%
    20:00 +19°C° 0 mm 2 mps 610 mmHg 51%
    21:00 +18°C° 0 mm 2 mps 610 mmHg 54%
    22:00 +18°C° 0 mm 1 mps 610 mmHg 58%
    23:00 +16°C° 0 mm 1 mps 610 mmHg 57%

    22 October, Sunday

    Time Temperature Precipitation Wind Pressure Humidity
    00:00 +16°C° 0 mm 1 mps 610 mmHg 56%
    01:00 +15°C° 0 mm 1 mps 609 mmHg 56%
    02:00 +15°C° 0 mm 1 mps 609 mmHg 56%
    03:00 +15°C° 0 mm 1 mps 609 mmHg 56%
    04:00 +15°C° 0 mm 1 mps 609 mmHg 56%
    05:00 +18°C° 0 mm 1 mps 610 mmHg 51%
    06:00 +19°C° 0 mm 1 mps 611 mmHg 46%
    07:00 +21°C° 0 mm 1 mps 612 mmHg 41%
    08:00 +23°C° 0 mm 2 mps 613 mmHg 34%
    09:00 +26°C° 0 mm 2 mps 614 mmHg 26%
    10:00 +29°C° 0 mm 3 mps 615 mmHg 18%
    11:00 +30°C° 0 mm 3 mps 615 mmHg 17%
    12:00 +31°C° 0 mm 3 mps 614 mmHg 16%
    13:00 +33°C° 0 mm 3 mps 614 mmHg 14%
    14:00 +31°C° 0 mm 3 mps 613 mmHg 16%
    15:00 +31°C° 0 mm 3 mps 613 mmHg 18%
    16:00 +30°C° 0 mm 4 mps 612 mmHg 19%
    17:00 +27°C° 0 mm 3 mps 612 mmHg 27%
    18:00 +25°C° 0 mm 2 mps 611 mmHg 34%
    19:00 +21°C° 0 mm 2 mps 611 mmHg 42%
    20:00 +22°C° 0.2 mm 1 mps 611 mmHg 44%
    21:00 +21°C° 0.2 mm 1 mps 611 mmHg 47%
    22:00 +21°C° 0.2 mm 1 mps 611 mmHg 49%
    23:00 +20°C° 0 mm 1 mps 610 mmHg 50%

    23 October, Monday

    Time Temperature Precipitation Wind Pressure Humidity
    00:00 +18°C° 0 mm 0 mps 610 mmHg 51%
    01:00 +18°C° 0 mm 0 mps 609 mmHg 52%
    02:00 +17°C° 0 mm 0 mps 609 mmHg 52%
    03:00 +17°C° 0 mm 0 mps 609 mmHg 52%
    04:00 +17°C° 0 mm 0 mps 608 mmHg 52%
    05:00 +18°C° 0 mm 0 mps 609 mmHg 48%
    06:00 +19°C° 0 mm 0 mps 610 mmHg 44%
    07:00 +23°C° 0 mm 1 mps 611 mmHg 40%
    08:00 +25°C° 0.1 mm 1 mps 612 mmHg 34%
    09:00 +28°C° 0.1 mm 1 mps 613 mmHg 27%
    10:00 +30°C° 0.1 mm 1 mps 614 mmHg 21%
    11:00 +31°C° 0.1 mm 2 mps 613 mmHg 21%
    12:00 +31°C° 0.1 mm 2 mps 613 mmHg 21%
    13:00 +31°C° 0.1 mm 2 mps 612 mmHg 21%
    14:00 +30°C° 0.2 mm 2 mps 612 mmHg 24%
    15:00 +29°C° 0.2 mm 2 mps 611 mmHg 28%
    16:00 +27°C° 0.2 mm 2 mps 611 mmHg 31%
    17:00 +25°C° 0.3 mm 2 mps 610 mmHg 39%
    18:00 +22°C° 0.3 mm 3 mps 610 mmHg 48%
    19:00 +20°C° 0.3 mm 3 mps 610 mmHg 57%
    20:00 +19°C° 0.4 mm 3 mps 610 mmHg 61%
    21:00 +19°C° 0.4 mm 2 mps 610 mmHg 65%
    22:00 +19°C° 0.4 mm 1 mps 610 mmHg 70%
    23:00 +19°C° 0.1 mm 1 mps 610 mmHg 68%

    24 October, Tuesday

    Time Temperature Precipitation Wind Pressure Humidity
    00:00 +20°C° 0.1 mm 1 mps 610 mmHg 66%
    01:00 +20°C° 0.1 mm 1 mps 609 mmHg 65%
    02:00 +19°C° 0.1 mm 1 mps 609 mmHg 65%
    03:00 +19°C° 0.1 mm 1 mps 609 mmHg 66%
    04:00 +18°C° 0.1 mm 2 mps 609 mmHg 67%
    05:00 +18°C° 0.1 mm 2 mps 609 mmHg 67%
    06:00 +19°C° 0.1 mm 1 mps 610 mmHg 66%
    07:00 +19°C° 0.1 mm 1 mps 610 mmHg 66%
    08:00 +22°C° 0 mm 1 mps 611 mmHg 56%
    09:00 +24°C° 0 mm 2 mps 611 mmHg 47%
    10:00 +26°C° 0 mm 2 mps 612 mmHg 38%
    11:00 +27°C° 0.1 mm 2 mps 612 mmHg 35%
    12:00 +28°C° 0.1 mm 2 mps 612 mmHg 32%
    13:00 +29°C° 0.1 mm 2 mps 612 mmHg 29%
    14:00 +28°C° 0.2 mm 2 mps 612 mmHg 32%
    15:00 +27°C° 0.2 mm 2 mps 611 mmHg 35%
    16:00 +26°C° 0.2 mm 2 mps 611 mmHg 38%
    17:00 +24°C° 0.5 mm 2 mps 611 mmHg 45%
    18:00 +23°C° 0.5 mm 2 mps 611 mmHg 52%
    19:00 +20°C° 0.5 mm 2 mps 611 mmHg 59%
    20:00 +19°C° 0.3 mm 2 mps 611 mmHg 62%
    21:00 +20°C° 0.3 mm 1 mps 610 mmHg 64%
    22:00 +19°C° 0.3 mm 1 mps 610 mmHg 67%
    23:00 +19°C° 0.3 mm 1 mps 610 mmHg 68%
    Show more